,,PA_Meas_PMT16A,,PR_Meas_QMR101_102,,RH_Meas_QMH101,,SR_Meas_QMS101,,TA_Meas_QMH101,,GenWind,,GenWind,
time,status,PA,status,PR,status,RH,status,SR,status,TA,status,DirAvg,status,SpdAvg,
2010-07-22, 00:00:04,VALID,919.463,VALID,0,VALID,96.8326,VALID,0,VALID,19.2723,VALID,359,VALID,1.49688,
2010-07-22, 00:01:04,VALID,919.439,VALID,0,VALID,96.7335,VALID,0,VALID,19.2528,VALID,15,VALID,1.96953,
2010-07-22, 00:02:04,VALID,919.44,VALID,0,VALID,96.6725,VALID,0,VALID,19.2348,VALID,321,VALID,1.5082,
2010-07-22, 00:03:04,VALID,919.421,VALID,0,VALID,96.6268,VALID,0,VALID,19.1944,VALID,19,VALID,1.57148,
2010-07-22, 00:04:04,VALID,919.452,VALID,0,VALID,96.6725,VALID,0,VALID,19.2348,VALID,19,VALID,1.95977,
2010-07-22, 00:05:04,VALID,919.421,VALID,0,VALID,96.6115,VALID,0,VALID,19.2153,VALID,5,VALID,1.8668,
2010-07-22, 00:06:04,VALID,919.401,VALID,0,VALID,96.6573,VALID,0,VALID,19.2139,VALID,10,VALID,1.54414,
2010-07-22, 00:07:04,VALID,919.412,VALID,0,VALID,96.6649,VALID,0,VALID,19.2543,VALID,10,VALID,1.63125,
2010-07-22, 00:08:04,VALID,919.392,VALID,0,VALID,96.6115,VALID,0,VALID,19.2348,VALID,10,VALID,1.96563,
2010-07-22, 00:09:04,VALID,919.372,VALID,0,VALID,96.6039,VALID,0,VALID,19.2348,VALID,10,VALID,1.54727,
2010-07-22, 00:10:04,VALID,919.36,VALID,0,VALID,96.6344,VALID,0,VALID,19.1944,VALID,357,VALID,2.16289,
2010-07-22, 00:11:04,VALID,919.312,VALID,0,VALID,96.6878,VALID,0.107441,VALID,19.2153,VALID,357,VALID,1.77656,
2010-07-22, 00:12:04,VALID,919.279,VALID,0,VALID,96.6954,VALID,0,VALID,19.1749,VALID,6,VALID,1.2875,
2010-07-22, 00:13:04,VALID,919.253,VALID,0,VALID,96.7107,VALID,0,VALID,19.1749,VALID,28,VALID,2.21172,
2010-07-22, 00:14:04,VALID,919.228,VALID,0,VALID,96.703,VALID,0,VALID,19.1554,VALID,19,VALID,1.75352,
2010-07-22, 00:15:04,VALID,919.277,VALID,0,VALID,96.6802,VALID,0,VALID,19.1763,VALID,12,VALID,1.94609,
2010-07-22, 00:16:04,VALID,919.291,VALID,0,VALID,96.6573,VALID,0,VALID,19.1749,VALID,333,VALID,1.04727,
2010-07-22, 00:17:04,VALID,919.289,VALID,0,VALID,96.6573,VALID,0.107441,VALID,19.1944,VALID,6,VALID,1.36055,
2010-07-22, 00:18:04,VALID,919.309,VALID,0,VALID,96.642,VALID,0,VALID,19.1944,VALID,5,VALID,1.15586,
2010-07-22, 00:19:04,VALID,919.304,VALID,0,VALID,96.6573,VALID,0,VALID,19.2139,VALID,5,VALID,0.455469,
2010-07-22, 00:20:04,VALID,919.307,VALID,0,VALID,96.6649,VALID,0,VALID,19.2139,VALID,336,VALID,1.43164,
2010-07-22, 00:21:04,VALID,919.358,VALID,0,VALID,96.6878,VALID,0,VALID,19.2139,VALID,334,VALID,0.58125,
2010-07-22, 00:22:04,VALID,919.346,VALID,0,VALID,96.7183,VALID,0,VALID,19.2139,VALID,334,VALID,0.196484,
2010-07-22, 00:23:04,VALID,919.337,VALID,0,VALID,96.6954,VALID,0,VALID,19.2139,VALID,334,VALID,0.956641,
2010-07-22, 00:24:04,VALID,919.336,VALID,0,VALID,96.7107,VALID,0.107441,VALID,19.2348,VALID,334,VALID,1.07734,
2010-07-22, 00:25:04,VALID,919.357,VALID,0,VALID,96.7259,VALID,0,VALID,19.2153,VALID,334,VALID,0.9875,
2010-07-22, 00:26:04,VALID,919.306,VALID,0,VALID,96.7488,VALID,0.107441,VALID,19.1749,VALID,334,VALID,0.430469,
2010-07-22, 00:27:04,VALID,919.302,VALID,0,VALID,96.7869,VALID,0,VALID,19.1944,VALID,334,VALID,0.935547,
2010-07-22, 00:28:04,VALID,919.272,VALID,0,VALID,96.8021,VALID,0,VALID,19.1554,VALID,347,VALID,0.855859,
2010-07-22, 00:29:04,VALID,919.279,VALID,0,VALID,96.8021,VALID,0,VALID,19.1749,VALID,11,VALID,1.45,
2010-07-22, 00:30:04,VALID,919.237,VALID,0,VALID,96.7945,VALID,0,VALID,19.1554,VALID,27,VALID,1.28008,
2010-07-22, 00:31:04,VALID,919.198,VALID,0,VALID,96.7488,VALID,0,VALID,19.1554,VALID,15,VALID,1.80625,
2010-07-22, 00:32:04,VALID,919.188,VALID,0,VALID,96.7945,VALID,0,VALID,19.1359,VALID,345,VALID,1.48398,
2010-07-22, 00:33:04,VALID,919.136,VALID,0,VALID,96.7869,VALID,0,VALID,19.1554,VALID,19,VALID,1.73516,
2010-07-22, 00:34:04,VALID,919.116,VALID,0,VALID,96.8174,VALID,0,VALID,19.1763,VALID,16,VALID,0.955078,
2010-07-22, 00:35:04,VALID,919.066,VALID,0,VALID,96.8326,VALID,0,VALID,19.1763,VALID,16,VALID,0.628125,
2010-07-22, 00:36:04,VALID,919.03,VALID,0,VALID,96.7716,VALID,0,VALID,19.1359,VALID,16,VALID,1.15781,
2010-07-22, 00:37:04,VALID,919.039,VALID,0,VALID,96.8174,VALID,0,VALID,19.1568,VALID,16,VALID,0.677344,
2010-07-22, 00:38:04,VALID,918.979,VALID,0,VALID,96.8174,VALID,0,VALID,19.1359,VALID,16,VALID,0.689844,
2010-07-22, 00:39:04,VALID,918.971,VALID,0,VALID,96.825,VALID,0,VALID,19.1359,VALID,16,VALID,0.796094,
2010-07-22, 00:40:04,VALID,918.984,VALID,0,VALID,96.8631,VALID,0,VALID,19.1359,VALID,16,VALID,1.19414,
2010-07-22, 00:41:04,VALID,918.983,VALID,0,VALID,96.764,VALID,0,VALID,19.1164,VALID,342,VALID,1.27617,
2010-07-22, 00:42:04,VALID,918.942,VALID,0,VALID,96.7716,VALID,0,VALID,19.1373,VALID,322,VALID,1.14219,
2010-07-22, 00:43:04,VALID,918.941,VALID,0,VALID,96.7945,VALID,0,VALID,19.1164,VALID,358,VALID,0.869531,
2010-07-22, 00:44:04,VALID,918.915,VALID,0,VALID,96.825,VALID,0,VALID,19.1359,VALID,358,VALID,0.600781,
2010-07-22, 00:45:04,VALID,918.882,VALID,0,VALID,96.7488,VALID,0,VALID,19.1373,VALID,334,VALID,1.45977,
2010-07-22, 00:46:04,VALID,918.822,VALID,0,VALID,96.7869,VALID,0,VALID,19.1568,VALID,317,VALID,0.798437,
2010-07-22, 00:47:04,VALID,918.799,VALID,0,VALID,96.7716,VALID,0,VALID,19.1373,VALID,317,VALID,0.783594,
2010-07-22, 00:48:04,VALID,918.823,VALID,0,VALID,96.7335,VALID,0,VALID,19.1373,VALID,317,VALID,1.23086,
2010-07-22, 00:49:04,VALID,918.829,VALID,0,VALID,96.7259,VALID,0,VALID,19.1178,VALID,318,VALID,1.03984,
2010-07-22, 00:50:04,VALID,918.852,VALID,0,VALID,96.764,VALID,0,VALID,19.1164,VALID,352,VALID,0.983594,
2010-07-22, 00:51:04,VALID,918.87,VALID,0,VALID,96.7259,VALID,0,VALID,19.1373,VALID,352,VALID,0.817187,
2010-07-22, 00:52:04,VALID,918.852,VALID,0,VALID,96.703,VALID,0,VALID,19.1373,VALID,352,VALID,0.770703,
2010-07-22, 00:53:04,VALID,918.874,VALID,0,VALID,96.5658,VALID,0,VALID,19.0774,VALID,352,VALID,0.8,
2010-07-22, 00:54:04,VALID,918.844,VALID,0,VALID,96.5506,VALID,0,VALID,19.1373,VALID,352,VALID,0.355859,
2010-07-22, 00:55:04,VALID,918.829,VALID,0,VALID,96.4591,VALID,0,VALID,19.1359,VALID,352,VALID,0.465234,
2010-07-22, 00:56:04,VALID,918.842,VALID,0,VALID,96.3066,VALID,0,VALID,19.1373,VALID,352,VALID,0.978125,
2010-07-22, 00:57:04,VALID,918.784,VALID,0,VALID,96.1465,VALID,0,VALID,19.1763,VALID,352,VALID,0.123828,
2010-07-22, 00:58:04,VALID,918.735,VALID,0,VALID,95.9788,VALID,0,VALID,19.2153,VALID,352,VALID,0,
2010-07-22, 00:59:04,VALID,918.705,VALID,0,VALID,95.9026,VALID,0,VALID,19.2348,VALID,352,VALID,0.165625,
2010-07-22, 01:00:04,VALID,918.682,VALID,0,VALID,95.6281,VALID,0,VALID,19.2139,VALID,352,VALID,0.482031,
2010-07-22, 01:01:04,VALID,918.668,VALID,0,VALID,95.3613,VALID,0,VALID,19.2528,VALID,352,VALID,0.341016,
2010-07-22, 01:02:04,VALID,918.68,VALID,0,VALID,94.9649,VALID,0,VALID,19.2528,VALID,352,VALID,0.339453,
2010-07-22, 01:03:04,VALID,918.63,VALID,0,VALID,94.6828,VALID,0,VALID,19.2723,VALID,352,VALID,0.470703,
2010-07-22, 01:04:04,VALID,918.6,VALID,0.2,VALID,94.4541,VALID,0,VALID,19.2723,VALID,352,VALID,1.01953,
2010-07-22, 01:05:04,VALID,918.568,VALID,0,VALID,94.3626,VALID,0,VALID,19.2738,VALID,350,VALID,1.34766,
2010-07-22, 01:06:04,VALID,918.56,VALID,0,VALID,94.4694,VALID,0,VALID,19.2738,VALID,348,VALID,1.23125,
2010-07-22, 01:07:04,VALID,918.525,VALID,0,VALID,94.355,VALID,0,VALID,19.2334,VALID,348,VALID,0.526953,
2010-07-22, 01:08:04,VALID,918.516,VALID,0,VALID,94.3093,VALID,0,VALID,19.2334,VALID,348,VALID,0.670313,
2010-07-22, 01:09:04,VALID,918.495,VALID,0,VALID,94.3703,VALID,0,VALID,19.2543,VALID,348,VALID,0.238281,
2010-07-22, 01:10:04,VALID,918.468,VALID,0,VALID,94.2407,VALID,0,VALID,19.2334,VALID,348,VALID,1.01484,
2010-07-22, 01:11:04,VALID,918.432,VALID,0,VALID,94.2788,VALID,0,VALID,19.2334,VALID,348,VALID,0.443359,
2010-07-22, 01:12:04,VALID,918.441,VALID,0,VALID,94.2102,VALID,0,VALID,19.2543,VALID,348,VALID,0.491797,
2010-07-22, 01:13:04,VALID,918.402,VALID,0,VALID,94.3779,VALID,0,VALID,19.2543,VALID,348,VALID,0.561719,
2010-07-22, 01:14:04,VALID,918.419,VALID,0,VALID,94.6295,VALID,0,VALID,19.1944,VALID,348,VALID,0.403516,
2010-07-22, 01:15:04,VALID,918.411,VALID,0,VALID,94.6218,VALID,0,VALID,19.1749,VALID,348,VALID,0.0304688,
2010-07-22, 01:16:04,VALID,918.403,VALID,0,VALID,94.6905,VALID,0,VALID,19.1749,VALID,348,VALID,0.187109,
2010-07-22, 01:17:04,VALID,918.351,VALID,0,VALID,94.5609,VALID,0.107441,VALID,19.1958,VALID,348,VALID,0.680859,
2010-07-22, 01:18:04,VALID,918.333,VALID,0,VALID,94.538,VALID,0,VALID,19.2139,VALID,348,VALID,0.862109,
2010-07-22, 01:19:04,VALID,918.287,VALID,0,VALID,94.4389,VALID,0,VALID,19.1944,VALID,348,VALID,1.21602,
2010-07-22, 01:20:04,VALID,918.244,VALID,0,VALID,94.3855,VALID,0,VALID,19.1554,VALID,341,VALID,0.832812,
2010-07-22, 01:21:04,VALID,918.232,VALID,0,VALID,94.3398,VALID,0,VALID,19.1359,VALID,341,VALID,1.46719,
2010-07-22, 01:22:04,VALID,918.233,VALID,0,VALID,94.3093,VALID,0,VALID,19.1164,VALID,341,VALID,1.24727,
2010-07-22, 01:23:04,VALID,918.235,VALID,0,VALID,94.0272,VALID,0,VALID,19.1164,VALID,28,VALID,1.77969,
2010-07-22, 01:24:04,VALID,918.218,VALID,0,VALID,93.8747,VALID,0,VALID,19.1568,VALID,50,VALID,1.05117,
2010-07-22, 01:25:04,VALID,918.236,VALID,0,VALID,93.8671,VALID,0,VALID,19.1359,VALID,50,VALID,0.666406,
2010-07-22, 01:26:04,VALID,918.234,VALID,0,VALID,93.8443,VALID,0,VALID,19.1359,VALID,50,VALID,0.862891,
2010-07-22, 01:27:04,VALID,918.223,VALID,0,VALID,93.7833,VALID,0.107441,VALID,19.1164,VALID,44,VALID,1.43711,
2010-07-22, 01:28:04,VALID,918.193,VALID,0,VALID,93.6155,VALID,0,VALID,19.1568,VALID,28,VALID,1.42539,
2010-07-22, 01:29:04,VALID,918.17,VALID,0,VALID,93.6308,VALID,0,VALID,19.1568,VALID,28,VALID,1.17422,
2010-07-22, 01:30:04,VALID,918.19,VALID,0,VALID,93.4173,VALID,0,VALID,19.1373,VALID,28,VALID,1.02305,
2010-07-22, 01:31:04,VALID,918.151,VALID,0,VALID,93.303,VALID,0,VALID,19.1749,VALID,28,VALID,0.948438,
2010-07-22, 01:32:04,VALID,918.092,VALID,0,VALID,93.12,VALID,0,VALID,19.1958,VALID,28,VALID,0.933203,
2010-07-22, 01:33:04,VALID,918.089,VALID,0,VALID,93.0819,VALID,0,VALID,19.1763,VALID,28,VALID,0.712109,
2010-07-22, 01:34:04,VALID,918.049,VALID,0,VALID,93.0285,VALID,0,VALID,19.1763,VALID,28,VALID,0.550781,
2010-07-22, 01:35:04,VALID,918.042,VALID,0,VALID,92.9523,VALID,0,VALID,19.1763,VALID,28,VALID,0.389062,
2010-07-22, 01:36:04,VALID,918.008,VALID,0,VALID,92.9752,VALID,0,VALID,19.1763,VALID,28,VALID,0.366016,
2010-07-22, 01:37:04,VALID,917.974,VALID,0,VALID,92.8456,VALID,0,VALID,19.1554,VALID,28,VALID,0.606641,
2010-07-22, 01:38:04,VALID,917.928,VALID,0,VALID,92.6474,VALID,0,VALID,19.1958,VALID,28,VALID,0.515234,
2010-07-22, 01:39:04,VALID,917.914,VALID,0,VALID,92.8227,VALID,0,VALID,19.1554,VALID,28,VALID,1.02969,
2010-07-22, 01:40:04,VALID,917.893,VALID,0,VALID,93.5927,VALID,0.107441,VALID,19.0969,VALID,131,VALID,1.60586,
2010-07-22, 01:41:04,VALID,917.859,VALID,0,VALID,94.3017,VALID,0,VALID,19.0398,VALID,131,VALID,1.66953,
2010-07-22, 01:42:04,VALID,917.828,VALID,0,VALID,94.8048,VALID,0,VALID,18.9409,VALID,131,VALID,1.325,
2010-07-22, 01:43:04,VALID,917.796,VALID,0,VALID,95.186,VALID,0,VALID,18.9034,VALID,131,VALID,1.07695,
2010-07-22, 01:44:04,VALID,917.755,VALID,0,VALID,95.5138,VALID,0,VALID,18.8839,VALID,131,VALID,0.717578,
2010-07-22, 01:45:04,VALID,917.755,VALID,0,VALID,95.7425,VALID,0,VALID,18.8449,VALID,131,VALID,0.748828,
2010-07-22, 01:46:04,VALID,917.719,VALID,0,VALID,95.9254,VALID,0,VALID,18.824,VALID,131,VALID,0.420703,
2010-07-22, 01:47:04,VALID,917.725,VALID,0,VALID,96.0322,VALID,0,VALID,18.8059,VALID,131,VALID,0.458594,
2010-07-22, 01:48:04,VALID,917.721,VALID,0,VALID,96.1236,VALID,0,VALID,18.7864,VALID,131,VALID,0.569141,
2010-07-22, 01:49:04,VALID,917.72,VALID,0,VALID,96.2075,VALID,0,VALID,18.7669,VALID,131,VALID,0.674609,
2010-07-22, 01:50:04,VALID,917.723,VALID,0,VALID,96.2914,VALID,0,VALID,18.7474,VALID,131,VALID,0.785156,
2010-07-22, 01:51:04,VALID,917.73,VALID,0,VALID,96.4057,VALID,0,VALID,18.7669,VALID,131,VALID,1.02305,
2010-07-22, 01:52:04,VALID,917.759,VALID,0,VALID,96.4972,VALID,0.107441,VALID,18.7655,VALID,131,VALID,0.972656,
2010-07-22, 01:53:04,VALID,917.724,VALID,0,VALID,96.5277,VALID,0,VALID,18.746,VALID,158,VALID,0.750391,
2010-07-22, 01:54:04,VALID,917.719,VALID,0,VALID,96.5506,VALID,0,VALID,18.7265,VALID,158,VALID,0.758594,
2010-07-22, 01:55:04,VALID,917.702,VALID,0,VALID,96.5658,VALID,0,VALID,18.7265,VALID,158,VALID,0.670313,
2010-07-22, 01:56:04,VALID,917.705,VALID,0,VALID,96.5734,VALID,0,VALID,18.7265,VALID,158,VALID,0.417578,
2010-07-22, 01:57:04,VALID,917.644,VALID,0,VALID,96.5658,VALID,0,VALID,18.7474,VALID,158,VALID,0.778906,
2010-07-22, 01:58:04,VALID,917.656,VALID,0,VALID,96.5887,VALID,0,VALID,18.7474,VALID,158,VALID,0.578125,
2010-07-22, 01:59:04,VALID,917.62,VALID,0,VALID,96.6115,VALID,0,VALID,18.7265,VALID,158,VALID,0.735156,
2010-07-22, 02:00:04,VALID,917.571,VALID,0,VALID,96.6039,VALID,0,VALID,18.7265,VALID,158,VALID,0.803906,
2010-07-22, 02:01:04,VALID,917.581,VALID,0,VALID,96.6039,VALID,0,VALID,18.7279,VALID,158,VALID,0.451562,
2010-07-22, 02:02:04,VALID,917.536,VALID,0,VALID,96.6115,VALID,0,VALID,18.6875,VALID,158,VALID,0.694141,
2010-07-22, 02:03:04,VALID,917.536,VALID,0,VALID,96.6115,VALID,0,VALID,18.7084,VALID,158,VALID,0.941797,
2010-07-22, 02:04:04,VALID,917.52,VALID,0,VALID,96.6344,VALID,0,VALID,18.7265,VALID,158,VALID,0.851563,
2010-07-22, 02:05:04,VALID,917.503,VALID,0,VALID,96.6268,VALID,0,VALID,18.7279,VALID,158,VALID,0.816016,
2010-07-22, 02:06:04,VALID,917.469,VALID,0,VALID,96.6344,VALID,0,VALID,18.707,VALID,158,VALID,1.01406,
2010-07-22, 02:07:04,VALID,917.402,VALID,0,VALID,96.6268,VALID,0,VALID,18.7474,VALID,158,VALID,0.9375,
2010-07-22, 02:08:04,VALID,917.365,VALID,0,VALID,96.5963,VALID,0.107441,VALID,18.7474,VALID,158,VALID,0.73125,
2010-07-22, 02:09:04,VALID,917.342,VALID,0,VALID,96.5811,VALID,0,VALID,18.746,VALID,158,VALID,0.532031,
2010-07-22, 02:10:04,VALID,917.322,VALID,0,VALID,96.5353,VALID,0.107441,VALID,18.746,VALID,158,VALID,0.692969,
2010-07-22, 02:11:04,VALID,917.326,VALID,0,VALID,96.4515,VALID,0.107441,VALID,18.7655,VALID,158,VALID,0.502344,
2010-07-22, 02:12:04,VALID,917.285,VALID,0,VALID,96.3524,VALID,0,VALID,18.746,VALID,158,VALID,0.417188,
2010-07-22, 02:13:04,VALID,917.295,VALID,0,VALID,96.299,VALID,0.107441,VALID,18.746,VALID,158,VALID,0.619531,
2010-07-22, 02:14:04,VALID,917.278,VALID,0,VALID,96.2151,VALID,0,VALID,18.746,VALID,158,VALID,0.741016,
2010-07-22, 02:15:04,VALID,917.284,VALID,0,VALID,96.1694,VALID,0.107441,VALID,18.746,VALID,158,VALID,0.736328,
2010-07-22, 02:16:04,VALID,917.291,VALID,0,VALID,96.1236,VALID,0,VALID,18.7669,VALID,158,VALID,0.722266,
2010-07-22, 02:17:04,VALID,917.296,VALID,0,VALID,96.1084,VALID,0,VALID,18.746,VALID,158,VALID,0.735937,
2010-07-22, 02:18:04,VALID,917.272,VALID,0,VALID,96.116,VALID,0,VALID,18.7864,VALID,158,VALID,0.445703,
2010-07-22, 02:19:04,VALID,917.221,VALID,0,VALID,96.055,VALID,0,VALID,18.7864,VALID,158,VALID,0.835547,
2010-07-22, 02:20:04,VALID,917.208,VALID,0,VALID,96.0398,VALID,0.107441,VALID,18.785,VALID,158,VALID,0.700391,
2010-07-22, 02:21:04,VALID,917.229,VALID,0,VALID,96.0169,VALID,0,VALID,18.785,VALID,158,VALID,0.746484,
2010-07-22, 02:22:04,VALID,917.228,VALID,0,VALID,96.0169,VALID,0,VALID,18.785,VALID,158,VALID,0.714453,
2010-07-22, 02:23:04,VALID,917.199,VALID,0,VALID,96.0017,VALID,0,VALID,18.785,VALID,158,VALID,0.792578,
2010-07-22, 02:24:04,VALID,917.197,VALID,0,VALID,96.0322,VALID,0,VALID,18.8059,VALID,158,VALID,0.501953,
2010-07-22, 02:25:04,VALID,917.191,VALID,0,VALID,95.9483,VALID,0,VALID,18.7864,VALID,158,VALID,0.663672,
2010-07-22, 02:26:04,VALID,917.182,VALID,0,VALID,95.9483,VALID,0,VALID,18.746,VALID,158,VALID,0.940625,
2010-07-22, 02:27:04,VALID,917.182,VALID,0,VALID,95.9559,VALID,0,VALID,18.7669,VALID,158,VALID,0.796484,
2010-07-22, 02:28:04,VALID,917.174,VALID,0,VALID,95.9788,VALID,0,VALID,18.7669,VALID,158,VALID,0.954687,
2010-07-22, 02:29:04,VALID,917.165,VALID,0,VALID,95.9636,VALID,0,VALID,18.7474,VALID,158,VALID,0.721094,
2010-07-22, 02:30:04,VALID,917.115,VALID,0,VALID,95.9559,VALID,0,VALID,18.7474,VALID,158,VALID,0.865234,
2010-07-22, 02:31:04,VALID,917.116,VALID,0,VALID,95.9788,VALID,0,VALID,18.7474,VALID,158,VALID,0.867969,
2010-07-22, 02:32:04,VALID,917.089,VALID,0,VALID,95.9331,VALID,0.107441,VALID,18.7265,VALID,158,VALID,0.789844,
2010-07-22, 02:33:04,VALID,917.052,VALID,0,VALID,95.9102,VALID,0,VALID,18.707,VALID,158,VALID,0.582812,
2010-07-22, 02:34:04,VALID,917.043,VALID,0,VALID,95.8721,VALID,0,VALID,18.7279,VALID,158,VALID,0.515625,
2010-07-22, 02:35:04,VALID,917.045,VALID,0,VALID,95.8416,VALID,0,VALID,18.7279,VALID,158,VALID,0.509766,
2010-07-22, 02:36:04,VALID,917.042,VALID,0,VALID,95.7958,VALID,0.107441,VALID,18.7474,VALID,158,VALID,0.174219,
2010-07-22, 02:37:04,VALID,917.024,VALID,0,VALID,95.7425,VALID,0.107441,VALID,18.7279,VALID,158,VALID,0.488281,
2010-07-22, 02:38:04,VALID,917.06,VALID,0,VALID,95.7044,VALID,0,VALID,18.668,VALID,158,VALID,0.784766,
2010-07-22, 02:39:04,VALID,917.022,VALID,0,VALID,95.773,VALID,0,VALID,18.629,VALID,158,VALID,0.808203,
2010-07-22, 02:40:04,VALID,917.046,VALID,0,VALID,95.8568,VALID,0,VALID,18.6095,VALID,157,VALID,0.796094,
2010-07-22, 02:41:04,VALID,917.007,VALID,0,VALID,95.895,VALID,0.107441,VALID,18.5914,VALID,157,VALID,0.504687,
2010-07-22, 02:42:04,VALID,917.029,VALID,0,VALID,95.9712,VALID,0,VALID,18.5511,VALID,157,VALID,0.430469,
2010-07-22, 02:43:04,VALID,917.027,VALID,0,VALID,96.0703,VALID,0,VALID,18.5525,VALID,157,VALID,0.389453,
2010-07-22, 02:44:04,VALID,916.999,VALID,0,VALID,96.1313,VALID,0,VALID,18.5121,VALID,157,VALID,0.520312,
2010-07-22, 02:45:04,VALID,917.011,VALID,0,VALID,96.2151,VALID,0,VALID,18.5525,VALID,157,VALID,0.811719,
2010-07-22, 02:46:04,VALID,917.023,VALID,0,VALID,96.238,VALID,0,VALID,18.5525,VALID,157,VALID,0.849609,
2010-07-22, 02:47:04,VALID,917.018,VALID,0,VALID,96.2456,VALID,0.107441,VALID,18.5316,VALID,157,VALID,0.888672,
2010-07-22, 02:48:04,VALID,917.026,VALID,0,VALID,96.2228,VALID,0,VALID,18.5525,VALID,157,VALID,1.02227,
2010-07-22, 02:49:04,VALID,916.997,VALID,0,VALID,96.238,VALID,0,VALID,18.5525,VALID,150,VALID,1.33086,
2010-07-22, 02:50:04,VALID,917.048,VALID,0,VALID,96.2456,VALID,0,VALID,18.5316,VALID,125,VALID,0.866406,
2010-07-22, 02:51:04,VALID,917.025,VALID,0,VALID,96.2914,VALID,0,VALID,18.572,VALID,125,VALID,1.10742,
2010-07-22, 02:52:04,VALID,916.966,VALID,0,VALID,96.3447,VALID,0,VALID,18.5914,VALID,125,VALID,1.275,
2010-07-22, 02:53:04,VALID,916.953,VALID,0,VALID,96.36,VALID,0,VALID,18.5914,VALID,125,VALID,1.15898,
2010-07-22, 02:54:04,VALID,916.944,VALID,0,VALID,96.4057,VALID,0,VALID,18.6109,VALID,125,VALID,0.905859,
2010-07-22, 02:55:04,VALID,916.906,VALID,0,VALID,96.4743,VALID,0,VALID,18.5914,VALID,125,VALID,1.06562,
2010-07-22, 02:56:04,VALID,916.91,VALID,0,VALID,96.4819,VALID,0,VALID,18.5914,VALID,125,VALID,0.88125,
2010-07-22, 02:57:04,VALID,916.856,VALID,0,VALID,96.5277,VALID,0,VALID,18.5914,VALID,125,VALID,0.712109,
2010-07-22, 02:58:04,VALID,916.855,VALID,0,VALID,96.5734,VALID,0,VALID,18.572,VALID,125,VALID,0.955469,
2010-07-22, 02:59:04,VALID,916.823,VALID,0,VALID,96.5887,VALID,0,VALID,18.572,VALID,125,VALID,0.759375,
2010-07-22, 03:00:04,VALID,916.806,VALID,0,VALID,96.6268,VALID,0,VALID,18.572,VALID,125,VALID,0.422266,
2010-07-22, 03:01:04,VALID,916.789,VALID,0,VALID,96.6725,VALID,0,VALID,18.5914,VALID,125,VALID,0.529297,
2010-07-22, 03:02:04,VALID,916.8,VALID,0,VALID,96.7107,VALID,0,VALID,18.6319,VALID,125,VALID,0.291797,
2010-07-22, 03:03:05,VALID,916.802,VALID,0,VALID,96.7259,VALID,0,VALID,18.6109,VALID,125,VALID,0.575391,
2010-07-22, 03:04:05,VALID,916.77,VALID,0,VALID,96.7411,VALID,0,VALID,18.6304,VALID,125,VALID,0.455859,
2010-07-22, 03:05:05,VALID,916.76,VALID,0,VALID,96.7183,VALID,0,VALID,18.6109,VALID,125,VALID,0.360156,
2010-07-22, 03:06:05,VALID,916.771,VALID,0,VALID,96.7183,VALID,0,VALID,18.5914,VALID,125,VALID,0.489844,
2010-07-22, 03:07:05,VALID,916.767,VALID,0,VALID,96.703,VALID,0,VALID,18.5914,VALID,125,VALID,0.5,
2010-07-22, 03:08:05,VALID,916.761,VALID,0,VALID,96.6573,VALID,0,VALID,18.572,VALID,125,VALID,0.665234,
2010-07-22, 03:09:05,VALID,916.758,VALID,0,VALID,96.6725,VALID,0,VALID,18.533,VALID,125,VALID,0.784375,
2010-07-22, 03:10:05,VALID,916.787,VALID,0,VALID,96.6802,VALID,0,VALID,18.533,VALID,125,VALID,0.891797,
2010-07-22, 03:11:05,VALID,916.793,VALID,0,VALID,96.7107,VALID,0,VALID,18.533,VALID,125,VALID,1.04922,
2010-07-22, 03:12:05,VALID,916.838,VALID,0,VALID,96.703,VALID,0,VALID,18.5525,VALID,125,VALID,1.05664,
2010-07-22, 03:13:05,VALID,916.792,VALID,0,VALID,96.6573,VALID,0,VALID,18.533,VALID,125,VALID,0.804297,
2010-07-22, 03:14:05,VALID,916.8,VALID,0,VALID,96.6344,VALID,0,VALID,18.5525,VALID,125,VALID,0.975391,
2010-07-22, 03:15:05,VALID,916.797,VALID,0,VALID,96.5963,VALID,0,VALID,18.572,VALID,125,VALID,0.860156,
2010-07-22, 03:16:05,VALID,916.773,VALID,0,VALID,96.5429,VALID,0,VALID,18.5914,VALID,125,VALID,0.708594,
2010-07-22, 03:17:05,VALID,916.767,VALID,0,VALID,96.4667,VALID,0,VALID,18.5914,VALID,125,VALID,0.898828,
2010-07-22, 03:18:05,VALID,916.765,VALID,0,VALID,96.3981,VALID,0,VALID,18.6109,VALID,124,VALID,0.405469,
2010-07-22, 03:19:05,VALID,916.783,VALID,0,VALID,96.3142,VALID,0,VALID,18.6109,VALID,124,VALID,0.480859,
2010-07-22, 03:20:05,VALID,916.766,VALID,0,VALID,96.2304,VALID,0,VALID,18.6304,VALID,124,VALID,0.243359,
2010-07-22, 03:21:05,VALID,916.747,VALID,0,VALID,96.1694,VALID,0,VALID,18.6304,VALID,124,VALID,0.439063,
2010-07-22, 03:22:05,VALID,916.74,VALID,0,VALID,96.1008,VALID,0,VALID,18.6304,VALID,124,VALID,0.359375,
2010-07-22, 03:23:05,VALID,916.713,VALID,0,VALID,96.0474,VALID,0,VALID,18.629,VALID,124,VALID,0.596094,
2010-07-22, 03:24:05,VALID,916.695,VALID,0,VALID,95.9636,VALID,0,VALID,18.6694,VALID,124,VALID,0.516406,
2010-07-22, 03:25:05,VALID,916.675,VALID,0,VALID,95.8873,VALID,0,VALID,18.6694,VALID,124,VALID,0.732813,
2010-07-22, 03:26:05,VALID,916.678,VALID,0,VALID,95.8492,VALID,0,VALID,18.6889,VALID,124,VALID,1.0293,
2010-07-22, 03:27:05,VALID,916.702,VALID,0,VALID,95.8492,VALID,0,VALID,18.6889,VALID,124,VALID,1.02656,
2010-07-22, 03:28:05,VALID,916.691,VALID,0,VALID,95.8187,VALID,0,VALID,18.6889,VALID,124,VALID,0.491797,
2010-07-22, 03:29:05,VALID,916.74,VALID,0,VALID,95.834,VALID,0,VALID,18.7084,VALID,124,VALID,0.549219,
2010-07-22, 03:30:05,VALID,916.733,VALID,0,VALID,95.8568,VALID,0,VALID,18.7084,VALID,124,VALID,0.930078,
2010-07-22, 03:31:05,VALID,916.738,VALID,0,VALID,95.9026,VALID,0,VALID,18.6889,VALID,125,VALID,0.865234,
2010-07-22, 03:32:05,VALID,916.755,VALID,0,VALID,95.9483,VALID,0,VALID,18.7084,VALID,145,VALID,1.33242,
2010-07-22, 03:33:05,VALID,916.776,VALID,0,VALID,96.0474,VALID,0,VALID,18.6889,VALID,167,VALID,1.02695,
2010-07-22, 03:34:05,VALID,916.765,VALID,0,VALID,96.1618,VALID,0,VALID,18.6694,VALID,166,VALID,1.30742,
2010-07-22, 03:35:05,VALID,916.754,VALID,0,VALID,96.2228,VALID,0,VALID,18.6694,VALID,166,VALID,0.810938,
2010-07-22, 03:36:05,VALID,916.76,VALID,0,VALID,96.3066,VALID,0,VALID,18.6499,VALID,166,VALID,1.08984,
2010-07-22, 03:37:05,VALID,916.733,VALID,0,VALID,96.421,VALID,0,VALID,18.6304,VALID,142,VALID,1.16953,
2010-07-22, 03:38:05,VALID,916.778,VALID,0,VALID,96.4896,VALID,0,VALID,18.6304,VALID,146,VALID,0.908984,
2010-07-22, 03:39:05,VALID,916.761,VALID,0,VALID,96.5506,VALID,0,VALID,18.6304,VALID,135,VALID,1.17734,
2010-07-22, 03:40:05,VALID,916.774,VALID,0,VALID,96.5887,VALID,0,VALID,18.6109,VALID,135,VALID,1.00078,
2010-07-22, 03:41:05,VALID,916.77,VALID,0,VALID,96.642,VALID,0,VALID,18.6109,VALID,135,VALID,1.10312,
2010-07-22, 03:42:05,VALID,916.764,VALID,0,VALID,96.6878,VALID,0,VALID,18.6109,VALID,135,VALID,0.791797,
2010-07-22, 03:43:05,VALID,916.798,VALID,0,VALID,96.7259,VALID,0,VALID,18.6513,VALID,166,VALID,0.746094,
2010-07-22, 03:44:05,VALID,916.781,VALID,0,VALID,96.7564,VALID,0,VALID,18.6499,VALID,147,VALID,0.707031,